Charlottetown, Prince Edward Island

7:40 AM AST on February 28, 2017 (GMT -0400)
Charlottetown

Weather History for CYYG - February, 2013

Change the Weather History Date:

Wednesday, February 6, 2013

  Actual Average Record
Temperature  
Mean Temperature 6 °F -  
Max Temperature 19 °F 27 °F 42 °F (2006)
Min Temperature -8 °F 12 °F -8 °F (2013)
Degree Days  
Heating Degree Days 60    
Moisture  
Dew Point -1 °F    
Average Humidity 64    
Maximum Humidity 86    
Minimum Humidity 34    
Precipitation  
Precipitation 0.01 in 0.12 in - ()
Sea Level Pressure  
Sea Level Pressure 30.03 in    
Wind  
Wind Speed 3 mph ()    
Max Wind Speed 9 mph    
Max Gust Speed -    
Visibility 14.2 miles    
Events Snow    
Averages and records for this station are not official NWS values.
T = Trace of Precipitation, MM = Missing Value Source: Averaged Metar Reports

Daily Weather History Graph

Daily Weather History Graph

Search for Another Location

Airport or City:

Trip Planner

Search our weather history database for the weather conditions in past years. The results will help you decide how hot, cold, wet, or windy it might be!

Date:

Astronomy

Feb. 06, 2013 Rise Set
Actual Time 7:28 AM AST 5:25 PM AST
Civil Twilight 6:57 AM AST 5:56 PM AST
Nautical Twilight 6:21 AM AST 6:32 PM AST
Astronomical Twilight 5:46 AM AST 7:07 PM AST
Moon 4:14 AM AST (2/6) 1:32 PM AST (2/6)
Length of Visible Light 10h 59m
Length of Day
9h 56m
Waning Crescent, 17% of the Moon is Illuminated
Feb 6
Waning Crescent
Feb 10
New
Feb 17
First Quarter
Feb 25
Full
Mar 4
Last Quarter

Hourly Weather History & Observations

Time (AST) Temp. Windchill Dew Point Humidity Pressure Visibility Wind Dir Wind Speed Gust Speed Precip Events Conditions
12:00 AM 1.4 °F -6.2 °F -9.4 °F 61% 30.08 in 15.0 mi West 3.5 mph - N/A   Clear
1:00 AM 1.4 °F -6.2 °F -9.4 °F 61% 30.08 in 15.0 mi SW 3.5 mph - N/A   Partly Cloudy
2:00 AM -6 °F - -12 °F 62% 30.06 in 15 mi NW 2.3 mph - -   Mostly Cloudy
2:00 AM -5.8 °F -14.5 °F -13.0 °F 71% 30.06 in 15.0 mi NW 3.5 mph - N/A   Mostly Cloudy
3:00 AM -2.2 °F - -11.2 °F 66% 30.08 in 15.0 mi Calm Calm - N/A   Mostly Cloudy
4:00 AM -2.2 °F - -7.6 °F 78% 30.07 in 15.0 mi Calm Calm - N/A   Mostly Cloudy
5:00 AM -0.4 °F -8.3 °F -7.6 °F 72% 30.07 in 15.0 mi NW 3.5 mph - N/A   Mostly Cloudy
6:00 AM 3.2 °F -4.2 °F -7.6 °F 61% 30.07 in 15.0 mi SSE 3.5 mph - N/A   Scattered Clouds
8:00 AM -7 °F - -12 °F 66% 30.10 in 15 mi Calm Calm - -   Partly Cloudy
8:00 AM -7.6 °F - -13.0 °F 77% 30.10 in 15.0 mi Calm Calm - N/A   Mostly Cloudy
9:00 AM 5.0 °F - -4.0 °F 66% 30.09 in 15.0 mi Calm Calm - N/A   Mostly Cloudy
10:00 AM 10.4 °F - -5.8 °F 48% 30.08 in 15.0 mi Variable 2.3 mph - N/A   Mostly Cloudy
11:00 AM 12.2 °F 2.9 °F -2.2 °F 53% 30.07 in 15.0 mi East 5.8 mph - N/A   Mostly Cloudy
12:00 PM 14.0 °F 8.2 °F -0.4 °F 53% 30.05 in 15.0 mi South 3.5 mph - N/A   Mostly Cloudy
1:00 PM 15.8 °F - -2.2 °F 45% 30.02 in 15.0 mi Calm Calm - N/A   Scattered Clouds
2:00 PM 16 °F - 0 °F 34% 30.01 in 15 mi SSW 2.3 mph - -   Scattered Clouds
2:00 PM 15.8 °F - -0.4 °F 49% 30.01 in 15.0 mi South 2.3 mph - N/A   Partly Cloudy
3:00 PM 15.8 °F - -0.4 °F 49% 30.00 in 15.0 mi SSE 2.3 mph - N/A   Partly Cloudy
4:00 PM 15.8 °F 6.1 °F 1.4 °F 53% 29.99 in 15.0 mi SSE 6.9 mph - N/A   Mostly Cloudy
5:00 PM 12.2 °F 1.7 °F 3.2 °F 67% 29.99 in 15.0 mi SSE 6.9 mph - N/A   Mostly Cloudy
6:00 PM 12.2 °F 6.1 °F 5.0 °F 73% 29.99 in 15.0 mi ESE 3.5 mph - N/A   Overcast
7:00 PM 14.0 °F 3.9 °F 5.0 °F 67% 29.97 in 15.0 mi SE 6.9 mph - N/A   Overcast
8:00 PM 15 °F - 7 °F 59% 29.98 in 15 mi SSE 6.9 mph - -   Overcast
8:00 PM 14.0 °F 5.1 °F 6.8 °F 73% 29.98 in 15.0 mi SSE 5.8 mph - N/A   Overcast
9:00 PM 15.8 °F 4.2 °F 8.6 °F 73% 30.00 in 15.0 mi South 9.2 mph - N/A Snow Light Snow
10:00 PM 17.6 °F 7.3 °F 14.0 °F 86% 29.99 in 12.0 mi SSE 8.1 mph - N/A Snow Light Snow
11:00 PM 19.4 °F 8.6 °F 15.8 °F 86% 29.98 in 8.0 mi South 9.2 mph - N/A Snow Light Snow
11:34 PM 19.4 °F 9.5 °F 15.8 °F 86% 29.98 in 2.5 mi SSW 8.1 mph - N/A Snow Light Snow